SCP
0 0 0 0 0 0 0 0 0 0 0 0 0 0 0 0 0 0 0 0 0 0 0 0 0 0 0 0 0 0 0 0 0 0 0 0 0 0 0 0 0 0 0 0 0 0 0 0 0
0 0 0 0 0 0 0 0 0 0 0 0 0 0 0 0 0 0 0 0 0 0 0 0 0 0 0 0 0 0 0 0 0 0 0 0 0 0 0 0 0 0 0 0 0 0 0 0 0
0 0 0 0 0 0 0 0 0 0 0 0 0 0 0 0 0 0 0 0 0 0 0 0 0 0 0 0 0 0 0 0 0 0 0 0 0 0 0 0 0 0 0 0 0 0 0 0 0
0 0 0 0 0 0 0 0 0 0 0 0 0 0 0 0 0 0 0 0 0 0 0 0 0 0 0 0 0 0 0 0 0 0 0 0 0 0 0 0 0 0 0 0 0 0 0 0 0
0 0 0 0 0 0 0 0 0 0 0 0 0 0 0 0 0 0 0 0 0 0 0 0 0 0 0 0 0 0 0 0 0 0 0 0 0 0 0 0 0 0 0 0 0 0 0 0 0
0 0 0 0 0 0 0 0 0 0 0 0 0 0 0 0 0 0 0 0 0 0 0 0 0 0 0 0 0 0 0 0 0 0 0 0 0 0 0 0 0 0 0 0 0 0 0 0 0
0 0 0 0 0 0 0 0 0 0 0 0 0 0 0 0 0 0 0 0 0 0 0 0 0 0 0 0 0 0 0 0 0 0 0 0 0 0 0 0 0 0 0 0 0 0 0 0 0
0 0 0 0 0 0 0 0 0 0 0 0 0 0 0 0 0 0 0 0 0 0 0 0 0 0 0 0 0 0 0 0 0 0 0 0 0 0 0 0 0 0 0 0 0 0 0 0 0
0 0 0 0 0 0 0 0 0 0 0 0 0 0 0 0 0 0 0 0 0 0 0 0 0 0 0 0 0 0 0 0 0 0 0 0 0 0 0 0 0 0 0 0 0 0 0 0 0
0 0 0 0 0 0 0 0 0 0 0 0 0 0 0 0 0 0 0 0 0 0 0 0 0 0 0 0 0 0 0 0 0 0 0 0 0 0 0 0 0 0 0 0 0 0 0 0 0
0 0 0 0 0 0 0 0 0 0 0 0 0 0 0 0 0 0 0 0 0 0 0 0 0 0 0 0 0 0 0 0 0 0 0 0 0 0 0 0 0 0 0 0 0 0 0 0 0
0 0 0 0 0 0 0 0 0 0 0 0 0 0 0 0 0 0 0 0 0 0 0 0 0 0 0 0 0 0 0 0 0 0 0 0 0 0 0 0 0 0 0 0 0 0 0 0 0
0 0 0 0 0 0 0 0 0 0 0 0 0 0 0 0 0 0 0 0 0 0 0 0 0 0 0 0 0 0 0 0 0 0 0 0 0 0 0 0 0 0 0 0 0 0 0 0 0
0 0 0 0 0 0 0 0 0 0 0 0 0 0 0 0 0 0 0 0 0 0 0 0 0 0 0 0 0 0 0 0 0 0 0 0 0 0 0 0 0 0 0 0 0 0 0 0 0
0 0 0 0 0 0 0 0 0 0 0 0 0 0 0 0 0 0 0 0 0 0 0 0 0 0 0 0 0 0 0 0 0 0 0 0 0 0 0 0 0 0 0 0 0 0 0 0 0
0 0 0 0 0 0 0 0 0 0 0 0 0 0 0 0 0 0 0 0 0 0 0 0 0 0 0 0 0 0 0 0 0 0 0 0 0 0 0 0 0 0 0 0 0 0 0 0 0
0 0 0 0 0 0 0 0 0 0 0 0 0 0 0 0 0 0 0 0 0 0 0 0 0 0 0 0 0 0 0 0 0 0 0 0 0 0 0 0 0 0 0 0 0 0 0 0 0
0 0 0 0 0 0 0 0 0 0 0 0 0 0 0 0 0 0 0 0 0 0 0 0 0 0 0 0 0 0 0 0 0 0 0 0 0 0 0 0 0 0 0 0 0 0 0 0 0
0 0 0 0 0 0 0 0 0 0 0 0 0 0 0 0 0 0 0 0 0 0 0 0 0 0 0 0 0 0 0 0 0 0 0 0 0 0 0 0 0 0 0 0 0 0 0 0 0
0 0 0 0 0 0 0 0 0 0 0 0 0 0 0 0 0 0 0 0 0 0 0 0 0 0 0 0 0 0 0 0 0 0 0 0 0 0 0 0 0 0 0 0 0 0 0 0 0
0 0 0 0 0 0 0 0 0 0 0 0 0 0 0 0 0 0 0 0 0 0 0 0 0 0 0 0 0 0 0 0 0 0 0 0 0 0 0 0 0 0 0 0 0 0 0 0 0
0 0 0 0 0 0 0 0 0 0 0 0 0 0 0 0 0 0 0 0 0 0 0 0 0 0 0 0 0 0 0 0 0 0 0 0 0 0 0 0 0 0 0 0 0 0 0 0 0
0 0 0 0 0 0 0 0 0 0 0 0 0 0 0 0 0 0 0 0 0 0 0 0 0 0 0 0 0 0 0 0 0 0 0 0 0 0 0 0 0 0 0 0 0 0 0 0 0
0 0 0 0 0 0 0 0 0 0 0 0 0 0 0 0 0 0 0 0 0 0 0 0 0 0 0 0 0 0 0 0 0 0 0 0 0 0 0 0 0 0 0 0 0 0 0 0 0
0 0 0 0 0 0 0 0 0 0 0 0 0 0 0 0 0 0 0 0 0 0 0 0 0 0 0 0 0 0 0 0 0 0 0 0 0 0 0 0 0 0 0 0 0 0 0 0 0
0 0 0 0 0 0 0 0 0 0 0 0 0 0 0 0 0 0 0 0 0 0 0 0 0 0 0 0 0 0 0 0 0 0 0 0 0 0 0 0 0 0 0 0 0 0 0 0 0
0 0 0 0 0 0 0 0 0 0 0 0 0 0 0 0 0 0 0 0 0 0 0 0 0 0 0 0 0 0 0 0 0 0 0 0 0 0 0 0 0 0 0 0 0 0 0 0 0
0 0 0 0 0 0 0 0 0 0 0 0 0 0 0 0 0 0 0 0 0 0 0 0 0 0 0 0 0 0 0 0 0 0 0 0 0 0 0 0 0 0 0 0 0 0 0 0 0
0 0 0 0 0 0 0 0 0 0 0 0 0 0 0 0 0 0 0 0 0 0 0 0 0 0 0 0 0 0 0 0 0 0 0 0 0 0 0 0 0 0 0 0 0 0 0 0 0
0 0 0 0 0 0 0 0 0 0 0 0 0 0 0 0 0 0 0 0 0 0 0 0 0 0 0 0 0 0 0 0 0 0 0 0 0 0 0 0 0 0 0 0 0 0 0 0 0
Wind_Speed
12 9 6 3 3 4 2 4 5 5 5 7 7 5 7 10 7 9 6 11 15 14 12 10 10 10 11 12 13 13 14 14 14 14 14 14 15 15 15 16 16 17 17 18 18 18 18 18 17
9 7 4 3 4 5 3 5 6 8 8 6 4 0 4 9 8 9 7 12 14 13 11 11 10 11 11 12 13 13 14 14 14 14 13 14 14 15 15 15 16 16 16 17 17 17 17 17 16
8 6 3 3 5 4 4 7 10 10 6 4 3 3 6 7 9 7 9 13 13 12 11 11 10 11 11 12 13 14 14 14 13 13 13 14 14 15 15 15 16 15 16 16 16 16 16 16 15
5 3 3 4 6 2 5 7 12 8 4 1 3 7 6 5 5 10 12 12 12 12 12 11 11 11 11 11 12 14 14 14 13 13 13 14 14 14 14 15 15 15 15 15 15 15 15 14 14
3 3 4 6 5 3 4 5 10 8 7 4 1 8 7 5 11 14 11 12 12 12 11 10 10 10 10 10 12 13 14 14 13 13 13 13 13 13 13 14 14 14 14 15 14 14 14 13 13
3 3 4 6 5 5 4 2 5 6 7 5 2 6 7 6 10 10 10 11 11 12 11 10 10 10 9 10 10 12 13 13 13 12 12 12 12 12 12 13 13 14 13 14 13 13 13 12 12
3 3 6 8 4 5 5 3 4 5 7 5 2 6 7 8 9 10 9 10 11 11 11 8 7 8 9 10 10 11 12 12 12 12 12 11 12 12 12 11 12 13 13 12 12 12 11 11 10
3 3 7 8 3 5 7 4 1 3 6 4 2 3 8 11 11 10 9 10 11 9 9 8 8 7 6 7 10 11 11 12 12 11 11 11 10 10 10 10 11 12 12 12 11 11 10 10 8
3 4 6 6 3 6 8 5 3 4 7 4 5 7 12 16 13 10 8 9 8 8 8 8 8 8 7 7 9 9 10 11 11 8 10 8 5 6 6 10 11 11 11 11 10 9 8 7 5
4 4 7 3 1 6 8 7 7 4 6 5 6 7 13 13 13 12 10 10 9 8 8 7 7 7 7 8 6 5 6 6 6 5 5 3 4 5 8 9 10 10 9 9 7 5 3 2 2
5 6 5 2 6 5 7 7 8 6 6 8 12 12 12 12 12 11 10 10 9 9 7 7 7 7 7 5 5 3 4 4 5 6 4 4 5 4 5 3 4 5 5 4 3 2 1 1 1
6 5 3 3 3 2 6 6 6 4 4 4 11 16 13 13 12 12 11 11 10 9 8 6 7 7 7 6 4 4 3 3 3 4 4 4 3 3 4 3 4 3 2 2 2 1 1 1 1
8 3 1 4 2 1 4 5 5 4 7 6 9 14 13 12 11 10 9 10 10 10 10 7 6 7 6 5 4 4 4 4 4 4 3 4 3 3 3 2 3 3 3 3 2 2 2 1 1
6 4 4 4 4 1 3 4 2 4 9 8 7 10 11 12 11 10 10 10 11 10 11 9 7 6 6 5 4 3 4 4 4 4 4 4 3 3 3 3 2 2 2 2 2 2 2 2 1
4 5 4 5 5 3 3 3 5 5 8 8 8 8 9 10 11 11 10 9 10 10 10 10 9 7 6 6 5 3 3 4 3 4 5 5 3 4 4 3 3 2 2 2 1 0 0 1 1
6 6 6 5 6 3 4 5 7 8 7 7 8 8 9 9 10 10 10 9 9 10 10 10 9 9 8 6 5 4 4 4 3 3 4 5 4 3 3 3 3 3 2 2 2 1 1 2 2
8 9 9 6 6 5 5 4 5 5 6 6 7 7 8 8 8 9 9 9 9 10 11 11 11 10 9 7 5 4 4 4 3 3 3 4 4 4 3 3 3 4 3 2 2 2 2 3 3
11 9 10 8 7 6 5 5 5 5 6 6 6 7 7 8 9 8 9 9 9 9 10 11 11 10 9 7 5 4 4 4 4 4 4 5 5 5 4 3 4 4 3 3 3 4 3 3 3
8 10 10 6 5 6 7 7 6 8 7 7 6 6 7 8 7 7 8 8 8 8 9 11 12 11 9 7 7 6 5 4 4 4 6 6 6 6 6 4 4 5 5 5 5 4 4 4 2
8 10 8 5 2 2 5 8 7 7 9 9 8 8 8 7 6 6 6 7 7 8 8 9 11 12 11 8 7 5 5 4 5 4 5 6 6 6 5 6 5 5 4 5 5 4 2 2 3
8 8 7 7 3 1 1 6 11 9 9 7 6 5 4 6 7 7 6 5 5 6 7 7 9 10 11 10 6 4 4 3 4 5 5 6 6 6 6 6 5 5 5 5 6 6 6 4 3
7 2 4 9 7 5 6 5 7 10 9 8 7 6 5 4 5 6 5 4 4 4 3 5 6 7 9 10 8 7 6 5 5 4 4 5 6 6 6 5 5 5 4 5 5 6 5 5 4
3 4 6 6 4 2 4 4 6 6 7 9 8 7 6 5 5 5 4 4 3 2 2 2 3 5 6 9 9 8 6 4 3 2 3 3 3 3 3 4 4 4 4 4 4 4 5 5 5
8 7 6 2 2 3 8 6 6 5 7 7 7 7 7 6 6 6 5 4 3 3 2 2 3 3 4 6 7 7 6 4 3 2 2 1 1 1 1 1 1 2 2 3 3 4 5 5 6
7 8 4 3 3 6 4 6 7 2 3 7 9 8 7 6 6 6 5 4 4 4 3 4 5 5 5 6 5 5 5 4 3 2 2 2 2 2 1 1 1 1 1 2 2 3 4 4 5
9 9 8 8 7 4 2 7 7 2 4 6 8 9 7 6 6 6 6 5 5 5 5 5 6 7 7 7 6 6 6 4 4 4 4 3 2 2 2 2 2 2 2 2 2 2 3 3 4
8 7 4 6 3 4 6 7 4 3 4 6 7 8 8 7 7 7 7 6 6 6 6 7 8 8 8 8 8 8 7 7 6 6 5 4 3 3 4 4 3 3 3 3 3 2 3 3 4
3 8 5 6 7 5 5 6 6 8 9 9 10 9 9 8 8 7 6 6 6 6 7 8 8 9 9 8 8 7 8 7 7 6 6 6 5 5 5 5 5 4 4 4 4 3 4 4 4
5 7 7 6 6 7 5 7 3 8 11 13 11 10 10 9 8 7 7 6 6 6 7 7 8 8 8 8 8 8 7 7 7 7 7 6 5 5 5 5 5 5 5 5 4 4 5 5 5
3 7 8 8 6 5 4 7 2 2 6 10 11 10 10 9 8 8 7 7 6 7 7 7 7 8 8 8 8 8 8 8 7 7 6 6 6 5 5 5 5 5 5 5 5 5 5 6 6
Wind_Direction
293 272 260 264 256 245 217 94 95 94 77 55 46 16 40 48 47 101 127 119 116 117 123 121 114 111 109 110 111 108 105 100 96 93 89 87 87 86 85 83 81 79 78 78 78 77 76 74 72
296 292 271 250 258 251 151 121 109 84 89 92 85 339 90 78 82 106 118 117 118 122 128 120 115 112 110 111 114 109 107 103 100 96 92 88 87 86 86 84 82 80 79 79 79 78 77 75 72
281 271 266 253 252 282 96 112 104 90 100 126 121 31 46 85 111 116 121 123 120 118 115 117 116 113 112 113 115 113 110 107 103 100 94 89 86 84 84 84 83 81 80 80 80 79 77 74 70
282 253 244 257 254 5 54 108 112 115 105 67 119 103 77 43 89 117 129 126 118 113 115 119 117 115 113 115 119 118 113 109 105 102 96 90 86 84 83 83 83 82 81 81 80 79 77 73 68
244 256 238 253 256 79 54 84 125 140 149 153 153 99 89 74 100 122 134 125 119 116 118 121 113 113 112 116 119 119 114 109 105 102 97 92 88 86 84 84 85 83 82 82 80 79 77 73 66
260 246 237 233 211 120 116 124 145 143 120 120 150 106 98 119 122 137 133 125 119 117 119 118 108 108 105 108 113 116 114 110 107 103 100 95 91 87 85 86 88 86 84 84 82 80 78 74 65
254 250 253 247 173 138 126 153 170 139 130 139 151 104 118 139 135 140 133 125 118 119 122 127 126 115 103 100 103 109 110 108 107 103 97 90 87 86 82 83 88 88 85 85 84 83 80 75 67
277 258 252 259 191 135 128 151 138 128 107 78 11 109 138 143 141 140 137 125 122 126 132 139 142 135 126 109 103 107 109 107 105 103 100 97 95 92 88 82 84 88 87 86 85 84 81 77 68
283 254 243 240 203 124 137 146 97 41 96 96 57 44 121 136 144 143 140 131 130 138 143 145 147 145 141 131 122 115 113 114 114 111 125 137 133 118 92 86 87 90 89 88 88 88 90 90 76
223 235 244 255 37 123 152 152 136 151 139 133 108 90 120 139 151 155 157 151 148 152 152 147 148 147 144 137 142 141 136 146 146 147 174 185 106 99 102 93 94 97 97 97 97 104 131 158 148
221 234 249 45 37 107 154 153 152 174 178 172 158 147 145 155 162 166 167 160 158 159 155 154 150 145 138 136 157 153 146 166 156 159 173 117 105 120 122 120 120 123 137 127 137 174 241 48 70
236 244 251 93 43 120 155 145 161 203 90 83 142 150 155 168 175 176 174 167 164 165 165 162 153 149 147 150 155 147 142 154 148 150 154 136 138 147 145 152 159 160 160 143 156 162 81 37 27
237 211 60 91 120 143 143 151 171 163 113 82 111 143 162 175 181 182 178 169 167 171 168 173 163 159 157 153 151 151 150 155 153 150 162 153 146 157 142 140 146 159 148 157 167 162 149 201 241
215 171 142 137 129 110 155 146 160 180 132 125 139 159 172 179 182 182 182 176 173 172 168 170 175 170 160 156 156 159 156 156 153 155 171 176 163 159 150 149 155 159 158 161 163 170 176 217 220
193 159 153 164 158 160 158 164 215 151 141 155 170 178 181 182 181 186 186 181 174 171 167 168 174 175 171 170 170 170 161 156 160 163 174 177 179 166 159 158 165 170 148 125 118 189 231 250 234
200 184 177 176 160 144 174 212 197 146 157 182 187 184 181 185 185 186 183 180 174 170 171 168 169 177 179 180 180 177 173 166 168 166 173 178 186 179 163 161 170 163 145 151 178 205 227 249 249
200 200 185 156 182 155 198 220 135 146 171 199 199 189 177 182 189 186 182 178 177 173 173 171 170 178 182 182 182 184 178 173 170 172 175 181 186 186 175 174 177 162 161 180 193 210 210 236 246
190 195 192 171 183 165 203 220 159 178 184 211 213 196 182 186 192 186 179 177 177 174 172 172 173 180 181 179 182 186 188 182 177 179 184 185 188 190 188 186 187 168 173 196 203 217 218 233 249
198 204 204 165 144 171 205 231 213 182 184 208 217 204 191 195 184 170 168 168 170 175 175 176 176 179 180 182 184 188 193 189 189 189 190 193 193 191 193 192 191 184 196 207 204 204 223 237 219
238 212 204 103 107 177 218 241 238 210 197 197 202 205 197 182 164 156 162 166 175 182 185 181 179 179 182 187 187 185 183 190 195 194 199 201 198 193 196 200 200 198 206 213 207 197 205 231 182
234 220 196 135 113 279 275 262 231 224 210 196 196 202 190 172 166 161 163 171 176 188 192 192 185 180 180 178 175 171 181 181 188 196 200 205 202 198 197 206 206 204 203 215 215 204 205 229 216
215 226 131 127 139 187 185 254 235 198 193 195 196 196 195 171 146 141 152 161 166 186 188 192 188 180 175 172 175 176 184 193 195 190 194 197 198 197 198 204 208 212 211 220 220 212 211 216 232
145 106 110 142 165 142 194 232 269 162 184 201 193 184 167 144 129 116 108 111 105 116 157 178 175 175 169 168 174 182 192 196 185 176 171 175 173 178 187 197 206 216 221 229 229 221 218 217 230
123 90 80 93 120 228 202 197 257 202 194 176 158 143 131 118 110 105 96 95 92 89 97 119 131 138 141 148 160 175 181 177 164 152 147 143 119 113 130 180 209 224 232 239 241 236 231 230 235
160 134 120 155 198 237 187 195 240 183 110 144 148 139 129 133 135 132 129 120 114 113 114 113 114 106 103 110 118 135 143 141 142 136 122 107 86 63 29 35 331 289 275 272 267 256 252 242 244
198 171 155 171 194 213 309 225 245 136 95 96 119 128 133 133 123 118 113 107 101 98 100 104 106 100 95 96 94 93 100 102 93 87 88 82 75 58 33 25 7 353 342 326 309 285 278 272 263
175 210 162 131 123 162 225 248 249 160 155 154 149 147 148 137 125 116 108 102 97 91 90 97 99 93 89 89 88 84 83 86 85 79 75 72 62 48 36 30 18 6 360 350 341 321 312 305 288
201 152 127 140 155 206 227 216 221 200 201 183 172 165 151 139 131 121 109 100 92 88 85 83 88 91 88 86 85 85 80 79 79 75 69 63 54 46 38 28 20 11 6 -0 350 330 322 317 306
163 158 172 161 176 173 212 244 215 191 185 178 174 162 152 146 137 126 116 107 99 91 89 88 87 88 87 87 85 82 77 74 73 69 61 54 49 42 35 24 18 12 6 1 354 341 336 328 318
219 182 175 169 203 188 184 255 324 36 150 158 157 150 143 137 130 125 122 118 108 99 93 90 87 86 88 89 86 82 77 74 71 64 54 47 44 37 31 22 17 10 3 356 351 343 341 333 325